Weather in Platamonas

Greece     39°59′25″N   22°37′25″E
temp.,
°C
wind,
m/s
gust,
m/s
humid.,
%
clouds,
%
prec.,
mm/h
press.,
hPa
HPBL,
m
13 may, thu
thu1300:00+11wnw22793 0.0 100918
03:00+13wnw226738 0.0 100821
06:00+11wsw22560 0.0 100817
09:00+15s12450 0.0 1008559
12:00+19s25380 0.0 10071511
15:00+21ssw164059 0.0 10072330
18:00+17wnw245643 0.1 1007671
21:00+14wsw345540 0.1 100860
14 may, fri
fri1400:00+12w44572 0.0 101051
03:00+11w43630 0.0 101039
06:00+10wsw44662 0.0 101156
09:00+15wsw23480 0.0 1011593
12:00+19sw23402 0.0 10121623
15:00+21wsw264096 0.1 10122226
18:00+18wsw2546100 0.0 10111790
21:00+14wsw455095 0.0 101293
15 may, sat
sat1500:00+13wsw444771 0.0 101247
03:00+12w33420 0.0 101231
06:00+11wsw4337100 0.0 101133
09:00+16e0139100 0.0 1011361
12:00+14sw5755100 0.4 10121095
15:00+11wsw457897 2.8 1011553
18:00+12sw2374100 0.7 1010598
21:00+9w22865 0.8 101020
16 may, sun
sun1600:00+9w22793 0.0 101112
03:00+9w32753 0.0 101021
06:00+9wnw22730 0.0 101014
09:00+14e11582 0.0 1010620
12:00+17se225156 0.0 10091464
15:00+19ese13456 0.0 10081228
18:00+18ne024891 0.0 1008872
21:00+14wnw226222 0.0 100914
17 may, mon
mon1700:00+13w225829 0.0 101013
03:00+13w32575 0.0 101018
06:00+12wsw32575 0.0 101016
09:00+18ssw12473 0.0 1011447
12:00+22s14413 0.0 10101569
15:00+24wsw154123 0.0 10091897
18:00+23w364388 0.0 10081867
21:00+16w336263 0.0 101037